Regional Weather Roundup
Issued by NWS

Home | Current Version | Previous Version | Graphics & Text | Print | Product List | Glossary On
Versions: 1 2 3 4 5 6 7 8 9 10 11 12 13 14 15 16 17 18 19 20 21 22 23 24 25 26 27 28 29 30 31 32 33 34 35 36 37 38 39 40 41 42 43 44 45 46 47 48 49 50
000
ASUS45 KTFX 050819
RWRMT
MONTANA REGIONAL WEATHER ROUNDUP
NATIONAL WEATHER SERVICE GREAT FALLS MT
200 AM MDT SAT SEP 05 2015

NOTE: "FAIR" INDICATES FEW OR NO CLOUDS BELOW 12000 FEET WITH NO
SIGNIFICANT WEATHER AND/OR OBSTRUCTIONS TO VISIBILITY.

MTZ001>007-043-050900-
WEST OF THE DIVIDE

CITY           SKY/WX    TMP DP  RH WIND       PRES   REMARKS
KALISPELL      CLOUDY    54  37  52 NE20G25   29.88F
MISSOULA       CLOUDY    54  44  69 E20       29.84F
BUTTE          CLOUDY    46  43  89 CALM      29.91S
MULLAN PASS    LGT RAIN  40  40 100 VRB3      29.87F VSB 3/4
EUREKA           N/A     54  37  54 NW7       29.93F
HAMILTON         N/A     52  45  76 SW3       29.81F
LIBBY            N/A     55  36  47 NW7       29.89F
PLAINS           N/A     57  43  59 NW2       29.85F
RONAN            N/A     53  47  80 CALM      29.90F
THOMPSON FALLS   N/A     53  49  86 SW7       29.90R
$$

MTZ008-052>055-050900-
SOUTHWEST MONTANA

CITY           SKY/WX    TMP DP  RH WIND       PRES   REMARKS
BOZEMAN        MOCLDY    48  47  96 SW6       29.85F
DILLON         CLOUDY    49  43  80 CALM      29.87F
W YELLOWSTONE  MOCLDY    45  45 100 N6        29.93S
THREE FORKS      N/A     51  34  52 CALM      29.87F
TWIN BRIDGES     N/A     51  43  74 S13       29.87S
$$

MTZ009-010-012-014-046-048-049-054-050900-
EAST SLOPES AND CENTRAL MONTANA

CITY           SKY/WX    TMP DP  RH WIND       PRES   REMARKS
CUT BANK       CLOUDY    44  43  96 N13       30.02R
GREAT FALLS    CLOUDY    49  48  97 NE12      29.94F VSB 3/4
MALMSTROM AFB  RAIN      49  49 100 N8G20     29.96S
HELENA         CLOUDY    49  44  83 W9        29.92F
CONRAD           N/A     48  48 100 W6        30.03R
$$

MTZ011-013-016-021-045-047-050-051-050900-
NORTH CENTRAL MONTANA

CITY           SKY/WX    TMP DP  RH WIND       PRES   REMARKS
HAVRE          RAIN      49  48  97 NE13      30.00F
LEWISTOWN      CLOUDY    51  47  86 S6        29.99R
N BAR RANCH    CLOUDY    48  46  93 VRB5G12   29.99R
CHINOOK          N/A     50  50 100 N6        30.01F
FORT BENTON      N/A     52  50  93 NE9       29.97F
$$

MTZ017>020-022>027-061-062-050900-
NORTHEAST MONTANA

CITY           SKY/WX    TMP DP  RH WIND       PRES   REMARKS
GLASGOW        HVY RAIN  53  48  83 NE13      29.96S
JORDAN           N/A     54  50  86 NE15      29.91F
SIDNEY         CLOUDY    61  57  88 N21G26      N/A
WOLF POINT     CLOUDY    60  46  59 NE20      29.92F
MALTA            N/A     52  46  79 N7        29.95S
PLENTYWOOD       N/A     54  52  94 CALM      29.99R
POPLAR           N/A     57  54  88 N13       29.94F
$$

MTZ028>42-056>058-050900-
SOUTHCENTRAL AND SOUTHEAST MONTANA

CITY           SKY/WX    TMP DP  RH WIND       PRES   REMARKS
BAKER          CLOUDY    61  32  33 E12       29.83F
BILLINGS       CLOUDY    55  46  71 N5        29.95R
LIVINGSTON     MOCLDY    51  47  86 E23G30    29.88F
MILES CITY     MOCLDY    63  57  81 N10       29.84R
EKALAKA          N/A     66  54  65 SE12      29.83F
FORSYTH          N/A     61  52  72 N10       29.84F
LAUREL           N/A     54  47  77 NW5       29.96R
ROUNDUP          N/A     51  46  83 N3        29.87F
$$

REGIONAL REPORTS...DAKOTAS

CITY           SKY/WX    TMP DP  RH WIND       PRES   REMARKS
WILLISTON      HVY RAIN  59  57  93 S12       29.97R FOG
MINOT          CLOUDY    60  59  96 N7        29.90F FOG
DICKINSON      LGT RAIN  63  60  90 NE7       29.88F
BEACH            N/A     61  61 100 E16       29.85F
CROSBY         CLOUDY    55  55 100 NE14      29.95F FOG
BISMARCK       PTCLDY    68  67  96 NE7       29.84S
GRAND FORKS    CLOUDY    64  64 100 N13       29.87S FOG
FARGO          CLEAR     72  68  87 SE7       29.83F
BUFFALO SD       N/A     66  59  78 N15       29.78F
RAPID CITY     CLOUDY    67  60  78 CALM      29.80F
$$

REGIONAL REPORTS...WYOMING/IDAHO/WASHINGTON

CITY           SKY/WX    TMP DP  RH WIND       PRES   REMARKS
GILLETTE       MOCLDY    58  55  90 W12       29.91S
SHERIDAN       PTCLDY    55  47  74 W12       29.90F
BUFFALO WY     CLEAR     57  48  72 NW3       29.95S
CODY           PTCLDY    50  43  76 N9        29.94F
YELLOWSTONE LA   N/A     46  44  93 VRB3      30.07R
IDAHO FALLS    CLEAR     52  39  61 S28G36    29.80S
SALMON         CLOUDY    48  46  93 SE6       29.83F
BOISE          CLEAR     49  43  80 NW6       29.89R
SPOKANE        CLOUDY    53  47  79 N8        29.81F
$$

REGIONAL REPORTS...ALBERTA

CITY           SKY/WX    TMP DP  RH WIND       PRES   REMARKS
EDMONTON       MOCLDY    43  39  87 W3        30.17F
CALGARY        LGT RAIN  43  41  93 N8        30.15S FOG
LETHBRIDGE     LGT RAIN  46  46 100 NE16      30.03F FOG
MEDICINE HAT   CLOUDY    48  46  93 NE7       30.07F
WATERTON GATE    N/A     39  37  93 N3          N/A
CARDSTON         N/A     41  41 100 W5          N/A
MILK RIVER       N/A     46  46 100 N10         N/A
$$

REGIONAL REPORTS...SASKATCHEWAN

CITY           SKY/WX    TMP DP  RH WIND       PRES   REMARKS
SWIFT CURRENT  CLOUDY    48  46  93 NE7       30.06R
REGINA         CLOUDY    52  46  82 N13       30.01F
SASKATOON      CLOUDY    48  45  87 N13       30.13F
CYPRESS HILLS    N/A     41  39  93 NE7         N/A
VAL MARIE        N/A     48  46  93 NE10        N/A
ROCKGLEN         N/A     48  46  93 N12         N/A
ASSINIBOIA       N/A     37  37 100 CALM        N/A
$$



USA.gov is the U.S. government's official web portal to all federal, state and local government web resources and services.